Weather in Kasumkent

Russia / Republic of Dagestan     41°40′38″N   48°09′08″E
temp.,
°C
wind,
m/s
gust,
m/s
humid.,
%
clouds,
%
prec.,
mm/h
press.,
hPa
HPBL,
m
12 april, mon
mon1200:00+10e227976 0.0 101620
03:00+11ene1177100 0.0 101510
06:00+11nne1176100 0.0 101511
09:00+13nne326094 0.0 1017401
12:00+17ne54470 0.0 1017903
15:00+17ne53480 0.0 10181037
18:00+12ene33680 0.0 1020174
21:00+11wsw22735 0.0 102215
13 april, tue
tue1300:00+10w11762 0.0 102211
03:00+10sse018149 0.0 102111
06:00+11w1177100 0.0 102211
09:00+15ene2258100 0.0 1022531
12:00+20ese57361 0.0 10201563
15:00+19ese56370 0.0 10191134
18:00+15e225111 0.0 101815
21:00+12w1157100 0.0 101911
14 april, wed
wed1400:00+12w2248100 0.0 101614
03:00+10w115576 0.0 101510
06:00+11ssw116587 0.3 101410
09:00+15ne324840 0.3 1014516
12:00+17ne324727 0.8 1013943
15:00+17n75548 1.3 10131073
18:00+13nnw586917 0.3 1014453
21:00+11nw017960 0.4 101510
15 april, thu
thu1500:00+10w118195 0.0 101511
03:00+10sw33773 0.0 101424
06:00+11wsw32700 0.0 101525
09:00+18nne33390 0.0 10151236
12:00+19ne544110 0.0 10141334
15:00+19nne653710 0.0 10141463
18:00+15ese11535 0.0 101517
21:00+12wsw22580 0.0 101511
16 april, fri
fri1600:00+12sw2260100 0.0 101413
03:00+12sw225986 0.0 101413
06:00+13wsw225693 0.0 101414
09:00+18ese333999 0.0 1014776
12:00+20e5437100 0.0 10131434
15:00+19e5438100 0.0 10141243
18:00+15nw1154100 0.3 101634
21:00+13w226791 0.6 101619